[[{"header":{"parameterUnit":"m.s-1","parameterCategory":1,"la1":30.2991,"la2":30.254,"lo1":-89.0895,"lo2":-89.0444,"dy":0.0017,"dx":0.0017,"nx":28,"ny":28,"refTime":"2023-08-08T09:00:00:Z","depth":0,"parameterNumber":2,"parameterNumberName":"U-component_of_WINDS"},"data":[0,0,0,0,0,0,0,0,0,0,0,0,0,0,0,0,0,0,0,0,0,0,0,0,0,0,0,0,0,0,0,0,0,0,0,0,0,0,0,0,0,0,0,0,0,0,0,0,0,0,0,0,0,0,0,0,0,0,3.572,3.5721,0,3.5812,3.5813,3.5814,3.5808,3.5807,3.5805,3.5804,3.5901,3.5905,3.5909,0,0,0,0,0,0,0,0,0,0,0,0,0,3.5542,3.5545,3.572,3.5721,3.5722,3.5812,3.5813,3.5814,3.5808,3.5806,3.5805,3.5803,3.59,3.5904,3.5909,0,0,0,0,0,0,0,0,0,0,0,0,0,3.5625,3.5546,3.572,3.573,3.5732,3.5812,3.5813,3.5815,3.5809,3.5806,3.5804,3.5802,3.5898,3.5904,3.591,3.5986,0,0,3.5927,3.593,0,0,0,0,0,0,0,0,3.562,3.5632,3.5727,3.5729,3.5732,3.5796,3.5786,3.5872,3.5809,3.5779,3.5804,3.5801,3.5868,3.5876,3.5898,3.5991,3.5995,3.5928,3.5931,3.5934,3.5935,0,0,0,0,0,0,0,3.5615,3.5628,3.5757,3.5729,3.5731,3.5731,3.574,3.5802,3.5834,3.5782,3.5782,3.5792,3.5869,3.5892,3.59,3.5996,3.5928,3.5933,3.5936,3.5939,3.6158,3.616,0,0,0,0,0,0,3.5606,3.5623,3.5754,3.5759,3.567,3.5736,3.5746,3.5778,3.5833,3.584,3.5794,3.5792,3.5884,3.5893,3.5904,3.5998,3.5934,3.5939,3.5942,3.6155,3.6158,3.6161,0,0,0,0,0,0,3.5602,3.5618,3.575,3.5691,3.5708,3.5741,3.5776,3.5781,3.5804,3.5843,3.5849,3.5812,3.5882,3.5895,3.5966,3.6001,3.5942,3.5947,3.6153,3.6156,3.616,3.6186,0,0,0,0,0,0,3.5597,3.5617,3.5645,3.5692,3.5711,3.581,3.5778,3.5784,3.5814,3.5812,3.5861,3.5868,3.5882,3.5957,3.5972,3.6008,3.5951,3.615,3.6154,3.6158,3.6182,3.619,3.6197,0,0,0,0,0,3.5591,3.565,3.5647,3.5663,3.5748,3.5812,3.5823,3.5837,3.5817,3.5846,3.5871,3.5866,3.5995,3.5964,3.5981,3.6019,3.6148,3.6153,3.6158,3.6179,3.6188,3.6197,0,0,0,0,0,0,3.5607,3.5656,3.5653,3.5729,3.5766,3.581,3.5848,3.5847,3.5891,3.5888,3.5904,3.5916,3.5986,3.601,3.5975,3.6097,3.6069,3.6077,3.6079,3.6088,3.6095,3.6089,3.5956,0,0,0,0,0,3.5619,3.5667,3.5707,3.5769,3.5788,3.5815,3.5844,3.5851,3.5891,3.5907,3.5937,3.5977,3.6026,3.6059,3.6106,3.6185,3.6197,3.622,3.6227,3.6233,3.6241,3.6285,3.6296,3.6178,3.6178,3.6178,0,0,3.5646,3.5678,3.5707,3.5774,3.5803,3.5853,3.5828,3.5882,3.5919,3.5916,3.5984,3.6007,3.6053,3.6128,3.6162,3.6149,3.6276,3.624,3.6244,3.6249,3.6292,3.6303,3.6313,3.6182,3.6181,3.6181,0,0,3.5718,3.5747,3.5803,3.5833,3.5878,3.5896,3.5909,3.5954,3.5969,3.6037,3.6036,3.6081,3.6166,3.6198,3.6226,3.6312,3.6309,3.6327,3.6365,3.6408,3.6417,3.6426,3.6457,3.6468,3.6334,3.6334,3.6334,0,3.5745,3.5818,3.5831,3.5885,3.5915,3.5913,3.597,3.6,3.6059,3.608,3.6064,3.617,3.6201,3.6284,3.6305,3.6327,3.6344,3.6321,3.6415,3.6423,3.6431,3.6461,3.6473,3.6336,3.6336,3.6336,3.6335,0,3.585,3.5901,3.594,3.5996,3.6031,3.6086,3.6108,3.6141,3.6146,3.6166,3.6236,3.6272,3.6327,3.6348,3.6353,3.6432,3.6423,3.6411,3.6383,3.6444,3.6473,3.6484,3.6339,3.6338,3.6337,3.6337,0,0,3.5935,3.5998,3.6012,3.6038,3.6088,3.6128,3.6183,3.6236,3.6265,3.6306,3.6353,3.6425,3.6414,3.6446,3.6455,3.6493,3.6559,3.6477,3.6478,3.6491,3.6649,3.6658,3.6671,3.6557,3.656,3.6561,3.6645,0,3.6013,3.611,3.6124,3.621,3.6258,3.6258,3.6306,3.6343,3.6362,3.6407,3.6429,3.648,3.6461,3.648,3.6518,3.6543,3.6591,3.6537,3.6603,3.6605,3.6592,3.6686,3.6695,3.6773,3.6656,3.6658,3.666,0,3.6118,3.616,3.6251,3.6295,3.6316,3.6359,3.6409,3.6451,3.6492,3.6504,3.6539,3.6544,3.6603,3.6572,3.6653,3.6616,3.6644,3.6661,3.6664,3.6671,3.6636,3.6696,3.6798,3.6809,3.6677,3.6676,3.6675,0,3.6172,3.6252,3.6317,3.6339,3.6391,3.6422,3.6445,3.6485,3.6516,3.656,3.6581,3.6632,3.666,3.6699,3.6718,3.6694,3.6798,3.6769,3.6811,3.681,3.6833,3.6832,3.6941,3.685,3.685,3.685,3.685,0,3.6258,3.6313,3.6342,3.6382,3.6445,3.646,3.6522,3.6545,3.658,3.6625,3.6628,3.6671,3.6693,3.6739,3.6754,3.6819,3.6832,3.6844,3.6847,3.6844,3.6843,3.6863,3.6858,3.6853,3.6852,3.6852,3.6851,0,3.6329,3.635,3.6421,3.6464,3.6477,3.6521,3.6559,3.6599,3.6618,3.6675,3.669,3.672,3.6775,3.6797,3.6865,3.6875,3.695,3.6949,3.6936,3.6937,3.6977,3.6973,3.7104,3.7123,3.7019,3.702,3.7021,0,3.6382,3.6425,3.6474,3.6503,3.6528,3.6576,3.6608,3.6625,3.6658,3.6709,3.6742,3.6796,3.6841,3.6928,3.6957,3.7009,3.7009,3.7052,3.7017,3.7013,3.7011,3.7008,3.7013,3.7058,3.7059,3.706,3.7061,0,3.6476,3.6484,3.6529,3.6578,3.6616,3.6655,3.6694,3.6719,3.6742,3.6779,3.6834,3.6869,3.6937,3.6991,3.7044,3.707,3.707,3.7071,3.7084,3.7081,3.7071,3.7077,3.6953,3.7068,3.7068,3.7067,3.7067,3.7066,3.654,3.6578,3.6618,3.6669,3.6699,3.6736,3.6775,3.6799,3.6845,3.6901,3.6908,3.6968,3.7009,3.708,3.7108,3.7155,3.7145,3.7163,3.7167,3.7171,3.7174,3.7063,3.7165,3.7165,3.7165,3.7165,3.7164,0,3.6634,3.666,3.6706,3.6759,3.6799,3.6795,3.6837,3.6871,3.6923,3.6961,3.7004,3.7068,3.7121,3.7154,3.7207,3.7239,3.724,3.7252,3.725,3.7256,3.7181,3.7165,3.725,3.725,3.725,3.725,3.725,3.725,3.6688,3.6752,3.6765,3.6845,3.6871,3.6928,3.6953,3.6987,3.7017,3.7088,3.7131,3.7152,3.7189,3.7244,3.7293,3.7301,3.7321,3.7334,3.7342,3.7271,3.7262,3.7253,3.7238,3.7338,3.7338,3.7414,3.7414,3.7415]},{"header":{"parameterUnit":"m.s-1","parameterCategory":1,"la1":30.2991,"la2":30.254,"lo1":-89.0895,"lo2":-89.0444,"dy":0.0017,"dx":0.0017,"nx":28,"ny":28,"refTime":"2023-08-08T09:00:00:Z","depth":0,"parameterNumber":3,"parameterNumberName":"V-component_of_WINDS"},"data":[0,0,0,0,0,0,0,0,0,0,0,0,0,0,0,0,0,0,0,0,0,0,0,0,0,0,0,0,0,0,0,0,0,0,0,0,0,0,0,0,0,0,0,0,0,0,0,0,0,0,0,0,0,0,0,0,0,0,0.654,0.6539,0,0.6456,0.6455,0.6454,0.641,0.641,0.641,0.641,0.6322,0.6319,0.6317,0,0,0,0,0,0,0,0,0,0,0,0,0,0.6658,0.6656,0.654,0.6539,0.6538,0.6456,0.6455,0.6454,0.641,0.641,0.641,0.641,0.6322,0.632,0.6317,0,0,0,0,0,0,0,0,0,0,0,0,0,0.6594,0.6655,0.654,0.6506,0.6502,0.6457,0.6455,0.6454,0.641,0.641,0.641,0.641,0.6323,0.632,0.6316,0.6298,0,0,0.6306,0.6305,0,0,0,0,0,0,0,0,0.6597,0.6589,0.6512,0.6508,0.6504,0.6443,0.6464,0.6401,0.641,0.6445,0.641,0.641,0.6362,0.6355,0.634,0.6293,0.629,0.6306,0.6304,0.6302,0.6301,0,0,0,0,0,0,0,0.6602,0.6593,0.6507,0.6511,0.6506,0.6494,0.6485,0.6452,0.6405,0.6442,0.6438,0.6429,0.636,0.6343,0.6337,0.6288,0.6306,0.6303,0.6301,0.6299,0.6221,0.6221,0,0,0,0,0,0,0.6612,0.6597,0.6509,0.6504,0.6551,0.6492,0.6481,0.6463,0.6405,0.6396,0.643,0.6428,0.6349,0.6342,0.6334,0.6307,0.6302,0.6299,0.6297,0.6221,0.6221,0.622,0,0,0,0,0,0,0.6615,0.6605,0.6513,0.655,0.6537,0.649,0.6469,0.6461,0.6445,0.6396,0.6387,0.6422,0.6349,0.6339,0.6307,0.6304,0.6297,0.6294,0.6221,0.6221,0.6221,0.6254,0,0,0,0,0,0,0.6619,0.6606,0.6599,0.655,0.6535,0.6488,0.6469,0.646,0.6439,0.6436,0.6386,0.6378,0.6348,0.6312,0.6303,0.6299,0.6292,0.6221,0.6221,0.6221,0.6253,0.6255,0.6257,0,0,0,0,0,0.6623,0.6612,0.6599,0.6589,0.6526,0.6488,0.6479,0.6446,0.6439,0.6431,0.64,0.6379,0.6306,0.6309,0.6299,0.6293,0.6221,0.6221,0.6221,0.6252,0.6255,0.6257,0,0,0,0,0,0,0.6662,0.6605,0.659,0.6563,0.6531,0.6481,0.647,0.645,0.6418,0.6416,0.6376,0.6365,0.6336,0.6311,0.6317,0.6271,0.6261,0.6259,0.6289,0.6291,0.6293,0.6299,0.6289,0,0,0,0,0,0.6667,0.6642,0.6593,0.6574,0.6559,0.6517,0.6499,0.6476,0.6441,0.6427,0.6393,0.6358,0.6327,0.6308,0.6276,0.6249,0.6237,0.624,0.6242,0.6244,0.6243,0.6225,0.6226,0.622,0.622,0.622,0,0,0.6678,0.6644,0.663,0.6581,0.6553,0.6527,0.6506,0.6479,0.6459,0.6422,0.639,0.6364,0.6323,0.6293,0.6278,0.6271,0.6241,0.6244,0.6246,0.6243,0.6225,0.6226,0.6226,0.622,0.622,0.622,0,0,0.6684,0.6656,0.6637,0.6609,0.6568,0.654,0.6536,0.6488,0.6469,0.6436,0.6408,0.6383,0.6331,0.6302,0.6281,0.6275,0.6255,0.6266,0.6276,0.626,0.626,0.6261,0.6258,0.6257,0.6265,0.6265,0.6265,0,0.6702,0.6663,0.6629,0.6604,0.6582,0.6548,0.6527,0.6502,0.6452,0.6438,0.6431,0.6364,0.6334,0.6297,0.6295,0.6279,0.6272,0.6272,0.6263,0.6263,0.6263,0.626,0.6259,0.6267,0.6266,0.6266,0.6266,0,0.6687,0.666,0.6649,0.6602,0.6579,0.6557,0.6518,0.6498,0.6477,0.645,0.6416,0.6379,0.6339,0.6328,0.6307,0.6287,0.6285,0.6271,0.626,0.6266,0.6262,0.626,0.6269,0.6268,0.6268,0.6267,0,0,0.6715,0.665,0.6646,0.6624,0.6576,0.6554,0.6529,0.649,0.6474,0.6441,0.6418,0.6374,0.6361,0.6337,0.6312,0.6298,0.6295,0.6286,0.6285,0.6288,0.6269,0.6279,0.6279,0.6281,0.6281,0.6281,0.6273,0,0.6714,0.6669,0.6637,0.6603,0.6577,0.6544,0.6522,0.6489,0.6463,0.6436,0.6406,0.6376,0.6362,0.6347,0.6331,0.6299,0.629,0.6299,0.6258,0.6257,0.6269,0.6277,0.6287,0.6281,0.6271,0.6271,0.627,0,0.6706,0.6675,0.6639,0.6592,0.658,0.6561,0.6523,0.6498,0.646,0.6441,0.6414,0.6389,0.636,0.6351,0.631,0.6316,0.6297,0.6279,0.6278,0.6272,0.6264,0.6271,0.6279,0.6278,0.6268,0.6268,0.6268,0,0.6729,0.6678,0.6649,0.6632,0.6577,0.6564,0.6541,0.6502,0.6481,0.6447,0.6433,0.6396,0.6376,0.6347,0.6312,0.6309,0.6273,0.6262,0.6256,0.6257,0.625,0.6251,0.6255,0.6239,0.6239,0.6239,0.6239,0,0.6731,0.671,0.6659,0.6641,0.6617,0.658,0.6556,0.6529,0.6495,0.6471,0.644,0.6418,0.6373,0.6345,0.6317,0.6287,0.6278,0.6261,0.6254,0.6263,0.6266,0.625,0.625,0.6239,0.6239,0.6239,0.6239,0,0.6752,0.6718,0.6684,0.6635,0.6623,0.6606,0.6564,0.6545,0.6517,0.6486,0.6477,0.6433,0.6398,0.636,0.6312,0.6294,0.6264,0.6254,0.6277,0.6273,0.6269,0.627,0.6263,0.626,0.6247,0.6247,0.6248,0,0.6755,0.6739,0.6688,0.667,0.6648,0.6619,0.6597,0.656,0.6538,0.6493,0.6479,0.6442,0.6411,0.6356,0.6319,0.6282,0.6271,0.6271,0.6265,0.6275,0.6269,0.6271,0.6268,0.6272,0.6273,0.6273,0.6273,0,0.6764,0.6748,0.6718,0.6682,0.6657,0.6627,0.6595,0.6582,0.6538,0.6515,0.648,0.6455,0.6407,0.637,0.6328,0.6303,0.628,0.6275,0.6272,0.6281,0.6295,0.6287,0.6282,0.6276,0.6275,0.6275,0.6275,0.6275,0.6776,0.6759,0.6721,0.6688,0.6661,0.6632,0.6612,0.6581,0.6551,0.6509,0.6489,0.6453,0.6414,0.6356,0.6331,0.6301,0.6294,0.629,0.6288,0.6287,0.629,0.6301,0.6294,0.6294,0.6293,0.6293,0.6293,0,0.6782,0.6756,0.6727,0.6684,0.6658,0.664,0.6604,0.6583,0.6553,0.6519,0.6488,0.6447,0.6411,0.6371,0.6332,0.6316,0.6305,0.6307,0.6308,0.6302,0.6298,0.6305,0.6317,0.6317,0.6317,0.6317,0.6317,0.6317,0.6782,0.6753,0.6732,0.6688,0.6661,0.6627,0.6608,0.658,0.6553,0.6508,0.6479,0.6453,0.6416,0.6374,0.634,0.6329,0.6315,0.6321,0.6307,0.6304,0.6302,0.63,0.6306,0.6318,0.6319,0.6312,0.6312,0.6312]}]]